TimeEDT,TemperatureF,Dew PointF,Humidity,Sea Level PressureIn,VisibilityMPH,Wind Direction,Wind SpeedMPH,Gust SpeedMPH,PrecipitationIn,Events,Conditions,WindDirDegrees,DateUTC
12:01 AM,73.4,73.4,100,30.04,10.0,East,4.6,-,N/A,,Scattered Clouds,90,2013-08-17 04:01:00
12:25 AM,73.4,73.4,100,30.04,10.0,SSE,3.5,-,N/A,,Mostly Cloudy,160,2013-08-17 04:25:00
12:29 AM,73.4,73.4,100,30.04,10.0,SSE,3.5,-,N/A,,Mostly Cloudy,150,2013-08-17 04:29:00
12:58 AM,73.2,73.2,100,30.04,10.0,ESE,3.5,-,0.00,,Overcast,110,2013-08-17 04:58:00
1:16 AM,73.4,73.4,100,30.04,10.0,ESE,2.3,-,N/A,Rain,Light Rain,120,2013-08-17 05:16:00
1:26 AM,73.4,73.4,100,30.04,10.0,SSE,2.3,-,N/A,,Overcast,150,2013-08-17 05:26:00
1:58 AM,73.4,73.4,100,30.04,10.0,South,3.5,-,0.00,,Overcast,170,2013-08-17 05:58:00
2:10 AM,73.4,73.4,100,30.03,8.0,South,3.5,-,N/A,,Overcast,180,2013-08-17 06:10:00
2:14 AM,73.4,73.4,100,30.03,6.0,South,3.5,-,N/A,,Overcast,170,2013-08-17 06:14:00
2:15 AM,73.4,73.4,100,30.03,6.0,SSE,3.5,-,N/A,Rain,Light Rain,160,2013-08-17 06:15:00
2:23 AM,73.4,73.4,100,30.04,8.0,South,4.6,-,N/A,Rain,Light Rain,170,2013-08-17 06:23:00
2:24 AM,73.4,73.4,100,30.04,9.0,South,4.6,-,N/A,,Overcast,170,2013-08-17 06:24:00
2:26 AM,73.4,73.4,100,30.04,10.0,South,4.6,-,N/A,,Overcast,170,2013-08-17 06:26:00
2:30 AM,73.4,73.4,100,30.04,10.0,South,3.5,-,N/A,,Overcast,170,2013-08-17 06:30:00
2:32 AM,73.4,73.4,100,30.03,10.0,SSE,3.5,-,N/A,,Overcast,160,2013-08-17 06:32:00
2:34 AM,73.4,73.4,100,30.03,10.0,South,3.5,-,N/A,,Overcast,170,2013-08-17 06:34:00
2:58 AM,73.4,73.4,100,30.03,10.0,SSE,2.3,-,0.00,,Mostly Cloudy,160,2013-08-17 06:58:00
3:58 AM,73.2,73.2,100,30.02,10.0,Calm,Calm,-,N/A,,Mostly Cloudy,0,2013-08-17 07:58:00
4:26 AM,73.4,73.4,100,30.02,10.0,ESE,2.3,-,N/A,,Mostly Cloudy,120,2013-08-17 08:26:00
4:46 AM,73.4,73.4,100,30.02,10.0,ESE,2.3,-,N/A,,Overcast,120,2013-08-17 08:46:00
4:58 AM,73.2,73.2,100,30.02,9.0,SE,2.3,-,N/A,,Overcast,130,2013-08-17 08:58:00
5:02 AM,73.4,73.4,100,30.02,6.0,SE,3.5,-,N/A,,Overcast,130,2013-08-17 09:02:00
5:12 AM,73.4,73.4,100,30.02,8.0,ESE,2.3,-,N/A,,Overcast,120,2013-08-17 09:12:00
5:14 AM,73.4,73.4,100,30.02,9.0,ESE,3.5,-,N/A,,Overcast,120,2013-08-17 09:14:00
5:18 AM,73.4,73.4,100,30.02,8.0,East,3.5,-,N/A,,Overcast,100,2013-08-17 09:18:00
5:20 AM,73.4,73.4,100,30.02,6.0,East,3.5,-,N/A,,Overcast,90,2013-08-17 09:20:00
5:22 AM,73.4,73.4,100,30.02,4.0,East,2.3,-,N/A,,Overcast,90,2013-08-17 09:22:00
5:26 AM,73.4,73.4,100,30.02,2.5,East,3.5,-,N/A,,Overcast,100,2013-08-17 09:26:00
5:28 AM,73.4,73.4,100,30.02,1.8,East,3.5,-,N/A,,Overcast,100,2013-08-17 09:28:00
5:32 AM,73.4,73.4,100,30.02,1.2,East,2.3,-,N/A,,Overcast,100,2013-08-17 09:32:00
5:36 AM,73.4,73.4,100,30.02,1.0,East,1.2,-,N/A,,Mist,80,2013-08-17 09:36:00
5:38 AM,73.4,73.4,100,30.02,1.0,NE,1.2,-,N/A,,Mist,40,2013-08-17 09:38:00
5:40 AM,73.4,73.4,100,30.02,1.2,East,3.5,-,N/A,,Overcast,90,2013-08-17 09:40:00
5:46 AM,73.4,73.4,100,30.02,1.5,East,2.3,-,N/A,,Overcast,90,2013-08-17 09:46:00
5:50 AM,73.4,73.4,100,30.02,2.5,East,2.3,-,N/A,,Overcast,100,2013-08-17 09:50:00
5:52 AM,73.4,73.4,100,30.02,3.0,East,2.3,-,N/A,,Overcast,90,2013-08-17 09:52:00
5:54 AM,73.4,73.4,100,30.02,3.0,East,2.3,-,N/A,,Overcast,100,2013-08-17 09:54:00
5:58 AM,73.0,73.0,100,30.02,4.0,ESE,3.5,-,N/A,,Overcast,110,2013-08-17 09:58:00
6:02 AM,73.4,73.4,100,30.02,5.0,East,3.5,-,N/A,,Overcast,100,2013-08-17 10:02:00
6:04 AM,73.4,73.4,100,30.02,6.0,East,3.5,-,N/A,,Overcast,100,2013-08-17 10:04:00
6:08 AM,73.4,73.4,100,30.02,7.0,ESE,3.5,-,N/A,,Overcast,110,2013-08-17 10:08:00
6:10 AM,73.4,73.4,100,30.03,7.0,ESE,3.5,-,N/A,,Overcast,110,2013-08-17 10:10:00
6:24 AM,73.4,73.4,100,30.03,8.0,ESE,5.8,-,N/A,,Overcast,120,2013-08-17 10:24:00
6:26 AM,73.4,73.4,100,30.03,9.0,ESE,4.6,-,N/A,,Overcast,120,2013-08-17 10:26:00
6:58 AM,73.2,73.2,100,30.06,10.0,SSE,8.1,-,N/A,,Overcast,160,2013-08-17 10:58:00
7:04 AM,73.4,73.4,100,30.06,10.0,SSE,8.1,-,N/A,,Overcast,160,2013-08-17 11:04:00
7:23 AM,73.4,73.4,100,30.06,10.0,SSE,6.9,-,N/A,Rain,Light Rain,150,2013-08-17 11:23:00
7:27 AM,73.4,73.4,100,30.06,10.0,SE,5.8,-,N/A,Rain,Light Rain,130,2013-08-17 11:27:00
7:32 AM,73.4,73.4,100,30.05,10.0,SE,3.5,-,N/A,,Overcast,130,2013-08-17 11:32:00
7:48 AM,73.4,73.4,100,30.06,10.0,SSE,3.5,-,N/A,,Overcast,160,2013-08-17 11:48:00
7:58 AM,73.2,73.2,100,30.06,10.0,SSE,5.8,-,0.01,,Overcast,160,2013-08-17 11:58:00
7:59 AM,73.4,73.4,100,30.06,10.0,SSE,5.8,-,N/A,Rain,Light Rain,160,2013-08-17 11:59:00
8:35 AM,73.4,73.4,100,30.08,7.0,South,6.9,-,N/A,Rain,Light Rain,180,2013-08-17 12:35:00
8:45 AM,73.4,73.4,100,30.08,7.0,South,6.9,-,N/A,Rain,Light Rain,190,2013-08-17 12:45:00
8:55 AM,73.4,73.4,100,30.08,2.5,SSW,5.8,-,N/A,Rain,Heavy Rain,200,2013-08-17 12:55:00
8:57 AM,73.4,73.4,100,30.08,2.5,South,5.8,-,N/A,Rain,Heavy Rain,190,2013-08-17 12:57:00
8:58 AM,73.4,73.4,100,30.09,2.5,South,6.9,-,0.14,Rain,Rain,190,2013-08-17 12:58:00
9:04 AM,73.4,73.4,100,30.08,3.0,South,5.8,-,N/A,Rain,Rain,170,2013-08-17 13:04:00
9:06 AM,73.4,73.4,100,30.08,5.0,SSE,3.5,-,N/A,Rain,Rain,160,2013-08-17 13:06:00
9:10 AM,73.4,73.4,100,30.07,6.0,ENE,1.2,-,N/A,Rain,Light Rain,70,2013-08-17 13:10:00
9:14 AM,73.4,73.4,100,30.07,7.0,East,2.3,-,N/A,Rain,Light Rain,100,2013-08-17 13:14:00
9:20 AM,73.4,73.4,100,30.07,8.0,East,1.2,-,N/A,Rain,Light Rain,80,2013-08-17 13:20:00
9:26 AM,73.4,73.4,100,30.07,9.0,ESE,2.3,-,N/A,Rain,Light Rain,120,2013-08-17 13:26:00
9:30 AM,73.4,73.4,100,30.07,10.0,SE,2.3,-,N/A,Rain,Light Rain,130,2013-08-17 13:30:00
9:38 AM,73.4,73.4,100,30.07,10.0,SE,3.5,-,N/A,Rain,Light Rain,130,2013-08-17 13:38:00
9:52 AM,73.4,73.4,100,30.07,10.0,South,4.6,-,N/A,Rain,Light Rain,180,2013-08-17 13:52:00
9:58 AM,73.4,73.4,100,30.07,10.0,SW,2.3,-,0.08,Rain,Light Rain,220,2013-08-17 13:58:00
10:00 AM,73.4,73.4,100,30.07,10.0,SW,2.3,-,N/A,Rain,Light Rain,230,2013-08-17 14:00:00
10:02 AM,73.4,73.4,100,30.06,10.0,WSW,3.5,-,N/A,Rain,Light Rain,250,2013-08-17 14:02:00
10:06 AM,73.4,73.4,100,30.06,10.0,West,2.3,-,N/A,Rain,Light Rain,280,2013-08-17 14:06:00
10:35 AM,75.2,75.2,100,30.06,10.0,Calm,Calm,-,N/A,,Overcast,0,2013-08-17 14:35:00
10:38 AM,75.2,75.2,100,30.06,10.0,Calm,Calm,-,N/A,,Overcast,0,2013-08-17 14:38:00
10:40 AM,75.2,75.2,100,30.06,10.0,Calm,Calm,-,N/A,,Overcast,0,2013-08-17 14:40:00
10:44 AM,75.2,75.2,100,30.06,10.0,Calm,Calm,-,N/A,,Mostly Cloudy,0,2013-08-17 14:44:00
10:46 AM,75.2,75.2,100,30.07,10.0,North,-9999.0,-,N/A,,Overcast,0,2013-08-17 14:46:00
10:47 AM,75.2,75.2,100,30.07,10.0,Variable,1.2,-,N/A,,Overcast,0,2013-08-17 14:47:00
10:49 AM,75.2,75.2,100,30.07,10.0,South,4.6,-,N/A,,Mostly Cloudy,170,2013-08-17 14:49:00
10:56 AM,75.2,73.4,94,30.07,10.0,East,3.5,-,N/A,,Mostly Cloudy,80,2013-08-17 14:56:00
10:58 AM,77.0,73.4,89,30.07,10.0,East,3.5,-,0.01,,Mostly Cloudy,80,2013-08-17 14:58:00
11:04 AM,77.0,73.4,89,30.07,10.0,Variable,3.5,-,N/A,,Mostly Cloudy,0,2013-08-17 15:04:00
11:58 AM,76.8,73.4,89,30.09,10.0,East,5.8,-,N/A,,Mostly Cloudy,80,2013-08-17 15:58:00
12:58 PM,78.8,73.6,84,30.07,10.0,East,5.8,-,0.01,,Mostly Cloudy,100,2013-08-17 16:58:00
1:58 PM,80.4,74.1,81,30.06,10.0,East,5.8,-,N/A,,Mostly Cloudy,100,2013-08-17 17:58:00
2:58 PM,81.3,73.9,78,30.05,10.0,East,4.6,-,N/A,,Mostly Cloudy,100,2013-08-17 18:58:00
3:58 PM,82.8,73.9,75,30.03,10.0,East,5.8,-,N/A,,Mostly Cloudy,90,2013-08-17 19:58:00
4:58 PM,84.4,74.7,72,30.02,10.0,East,8.1,-,N/A,,Scattered Clouds,80,2013-08-17 20:58:00
5:33 PM,82.4,75.2,79,30.03,10.0,East,4.6,-,N/A,Rain,Light Rain,100,2013-08-17 21:33:00
5:48 PM,80.6,75.2,84,30.03,10.0,ENE,3.5,-,N/A,,Partly Cloudy,70,2013-08-17 21:48:00
5:52 PM,80.6,75.2,84,30.03,10.0,ENE,3.5,-,N/A,Rain,Light Rain,60,2013-08-17 21:52:00
5:58 PM,81.1,76.1,85,30.03,10.0,ENE,3.5,-,0.00,Rain-Thunderstorm,Light Rain,70,2013-08-17 21:58:00
6:04 PM,80.6,75.2,84,30.03,10.0,East,4.6,-,N/A,Thunderstorm,Partly Cloudy,90,2013-08-17 22:04:00
6:37 PM,80.6,73.4,79,30.06,7.0,WNW,23.0,28.8,N/A,Rain-Thunderstorm,Light Rain,290,2013-08-17 22:37:00
6:45 PM,75.2,71.6,89,30.08,1.2,West,15.0,28.8,N/A,Rain-Thunderstorm,Rain,280,2013-08-17 22:45:00
6:47 PM,75.2,71.6,89,30.08,0.5,West,16.1,28.8,N/A,Fog-Rain-Thunderstorm,Heavy Rain,280,2013-08-17 22:47:00
6:55 PM,73.4,71.6,94,30.07,0.8,WNW,11.5,-,N/A,Rain-Thunderstorm,Light Rain,290,2013-08-17 22:55:00
6:57 PM,73.4,71.6,94,30.07,2.0,WNW,12.7,-,N/A,Rain-Thunderstorm,Light Rain,290,2013-08-17 22:57:00
6:58 PM,73.4,71.6,94,30.07,2.0,WNW,12.7,-,0.18,Rain-Thunderstorm,Light Rain,290,2013-08-17 22:58:00
7:00 PM,73.4,71.6,94,30.07,7.0,WNW,11.5,-,N/A,Rain-Thunderstorm,Light Rain,290,2013-08-17 23:00:00
7:18 PM,71.6,71.6,100,30.09,10.0,WNW,5.8,-,N/A,,Scattered Clouds,300,2013-08-17 23:18:00
7:45 PM,73.4,71.6,94,30.09,10.0,North,4.6,-,N/A,Rain,Light Rain,350,2013-08-17 23:45:00
7:58 PM,72.5,71.6,97,30.09,10.0,NNW,3.5,-,0.00,Rain,Light Rain,340,2013-08-17 23:58:00
8:03 PM,71.6,71.6,100,30.09,10.0,North,2.3,-,N/A,,Clear,360,2013-08-18 00:03:00
8:21 PM,71.6,71.6,100,30.10,10.0,North,2.3,-,N/A,,Mostly Cloudy,350,2013-08-18 00:21:00
8:22 PM,71.6,71.6,100,30.10,10.0,NNW,2.3,-,N/A,,Mostly Cloudy,340,2013-08-18 00:22:00
8:32 PM,71.6,71.6,100,30.10,10.0,Variable,1.2,-,N/A,,Mostly Cloudy,0,2013-08-18 00:32:00
8:35 PM,71.6,71.6,100,30.09,10.0,North,3.5,-,N/A,Rain,Light Rain,360,2013-08-18 00:35:00
8:58 PM,72.3,72.0,99,30.10,10.0,North,2.3,-,0.01,Rain,Light Rain,10,2013-08-18 00:58:00
9:04 PM,71.6,71.6,100,30.10,10.0,ENE,2.3,-,N/A,Rain,Light Rain,60,2013-08-18 01:04:00
9:07 PM,71.6,71.6,100,30.10,10.0,East,3.5,-,N/A,,Scattered Clouds,80,2013-08-18 01:07:00
9:44 PM,71.6,71.6,100,30.11,10.0,NE,1.2,-,N/A,Rain,Light Rain,40,2013-08-18 01:44:00
9:58 PM,72.1,71.8,99,30.12,10.0,East,2.3,-,0.00,Rain,Light Rain,100,2013-08-18 01:58:00
10:01 PM,71.6,71.6,100,30.12,10.0,East,4.6,-,N/A,,Clear,100,2013-08-18 02:01:00
10:22 PM,71.6,71.6,100,30.11,10.0,ENE,3.5,-,N/A,,Partly Cloudy,70,2013-08-18 02:22:00
10:36 PM,71.6,71.6,100,30.11,10.0,ESE,5.8,-,N/A,,Mostly Cloudy,110,2013-08-18 02:36:00
10:38 PM,71.6,71.6,100,30.11,10.0,ESE,3.5,-,N/A,,Mostly Cloudy,110,2013-08-18 02:38:00
10:58 PM,71.6,71.2,99,30.12,10.0,ESE,5.8,-,0.01,,Mostly Cloudy,110,2013-08-18 02:58:00
11:02 PM,71.6,71.6,100,30.12,10.0,East,5.8,-,N/A,,Mostly Cloudy,100,2013-08-18 03:02:00
11:58 PM,71.2,70.9,99,30.12,10.0,ESE,4.6,-,N/A,,Clear,110,2013-08-18 03:58:00